GFSNW_sfc_thetae_159.txt.gz
Theta_e
308 307 307 307 306 305 303 302 297 310 313 298 299 292 298 299 299 303 300 300 298 298 299 297 295 295 299 305 302 297 297 292 287 291 297 299 295 292 295 287 290 292 291 290
308 307 307 307 306 305 300 297 301 311 306 291 291 298 299 300 299 298 298 297 301 302 298 296 298 298 303 304 302 298 298 291 283 285 290 294 291 293 295 295 292 289 287 291
307 307 306 306 306 305 302 300 293 299 299 298 295 294 296 295 301 299 300 300 301 298 297 301 299 298 302 303 303 312 305 294 288 284 287 291 290 293 297 295 287 290 292 295
307 307 306 306 306 305 302 299 294 296 289 292 293 296 297 293 293 298 300 297 297 295 295 297 296 300 302 303 308 301 300 293 298 292 294 294 293 293 295 296 296 292 296 296
306 306 306 306 306 305 304 294 292 294 293 296 294 294 292 292 294 295 294 295 297 296 296 297 294 298 299 299 303 300 303 294 297 296 294 294 293 295 296 297 298 298 300 300
306 306 305 306 306 305 300 302 300 295 294 293 291 291 293 294 294 299 299 298 296 295 299 300 301 302 302 302 300 300 300 296 294 290 296 294 288 292 294 297 302 301 293 302
306 306 305 305 306 305 301 301 299 293 288 291 291 293 295 293 295 294 298 299 298 300 305 304 304 303 303 303 304 306 298 296 295 291 294 284 294 301 299 297 304 304 307 308
306 305 304 304 306 306 300 302 299 293 287 292 292 293 294 294 296 297 298 300 303 303 302 297 296 296 298 302 304 302 302 296 291 288 288 295 299 303 300 301 301 307 306 306
306 305 304 304 305 305 301 300 304 298 290 289 293 291 292 289 289 293 296 301 302 303 299 297 289 287 294 293 297 303 303 299 292 290 287 286 297 305 309 309 296 306 305 305
306 305 304 304 304 305 302 300 304 301 292 294 295 290 290 295 293 291 295 297 297 302 294 292 291 291 299 290 292 293 293 294 290 290 288 292 302 307 310 293 296 307 306 306
305 304 304 303 304 304 302 298 302 299 295 296 297 298 293 292 292 289 294 293 296 295 290 289 292 293 296 295 298 298 294 291 290 293 288 286 309 307 301 304 307 310 309 308
305 304 304 303 303 303 303 296 302 304 298 294 300 300 301 299 298 295 295 295 296 296 293 291 291 292 296 296 292 300 295 298 294 296 296 305 309 309 310 309 308 308 308 307
305 304 304 303 303 303 302 298 300 299 296 295 296 296 302 307 304 304 294 297 301 300 301 296 293 289 296 292 295 297 301 306 301 300 301 302 309 312 312 311 308 311 308 307
305 304 303 303 303 304 303 298 300 299 297 290 293 303 299 304 304 305 305 303 303 302 300 296 294 291 298 295 296 297 301 303 298 300 305 305 307 312 314 314 312 309 308 306
305 304 303 303 303 304 302 300 301 302 295 290 291 298 302 303 305 304 307 304 302 299 295 294 293 297 297 299 297 296 304 303 299 296 306 303 305 313 314 310 309 309 307 305
304 304 303 303 302 303 297 294 304 304 303 294 287 297 297 302 305 303 302 305 303 299 296 296 298 301 296 292 292 301 305 308 309 305 311 310 310 314 314 311 309 309 306 304
303 302 302 302 302 300 293 294 300 303 300 295 289 290 300 304 304 305 304 305 301 300 298 296 297 298 298 294 291 298 301 303 305 311 312 309 310 306 309 308 307 305 303 301
302 302 302 302 302 300 295 299 301 302 298 298 289 289 294 305 300 298 305 300 301 300 297 298 297 298 297 291 297 299 302 303 305 306 312 307 306 305 303 302 301 298 297 297
302 301 301 300 297 294 301 309 308 302 299 292 292 287 287 302 300 300 301 302 293 300 294 296 297 294 290 295 298 298 299 298 300 303 306 304 301 300 300 298 297 295 295 295
301 299 297 295 300 309 307 303 298 296 296 295 289 293 288 294 293 296 297 297 294 290 294 299 293 292 299 299 298 298 298 301 303 300 298 298 297 297 296 296 296 296 296 296
300 297 297 301 307 302 299 294 292 292 289 292 293 293 290 298 291 291 298 294 295 290 293 293 290 290 296 298 298 299 300 300 300 299 299 299 298 296 295 296 297 297 296 295
296 295 300 300 297 295 291 290 293 291 289 295 294 297 297 297 302 296 298 295 296 289 297 293 288 294 297 297 297 299 299 299 297 298 297 297 297 297 296 296 295 295 296 296
300 296 293 290 291 285 285 285 289 291 297 298 298 295 299 300 301 297 296 292 292 300 292 289 293 296 298 298 299 299 300 300 299 298 298 299 298 298 297 296 296 296 295 295
292 290 283 286 286 288 290 290 293 298 299 298 298 297 297 298 296 296 292 296 296 289 286 289 294 296 297 298 300 300 299 299 299 299 298 297 297 296 298 296 295 294 294 294
290 291 284 287 292 294 296 298 298 299 300 299 297 297 298 295 294 296 295 291 289 290 289 294 298 299 299 299 300 300 300 300 299 298 296 295 294 294 294 295 294 294 294 294
292 291 288 292 291 293 295 296 295 300 299 299 298 294 292 292 294 292 291 290 286 292 297 299 300 300 301 302 302 302 298 296 295 295 295 295 295 293 293 294 294 294 294 293
290 289 293 292 292 292 294 296 296 300 297 293 294 289 290 296 292 291 295 291 296 300 301 302 301 301 302 303 300 300 299 298 297 296 296 295 295 295 294 292 294 293 293 293

GFSNW_sfc_thetae_162.txt.gz
Theta_e
309 308 307 307 306 305 301 294 291 305 305 292 290 289 294 298 298 301 300 300 298 296 297 296 295 294 298 303 301 295 297 291 285 288 294 298 293 292 292 286 287 288 289 288
309 308 307 307 306 305 299 291 294 303 300 285 286 292 295 300 297 296 298 297 299 300 295 293 297 299 304 303 300 296 296 291 282 286 289 294 290 292 293 293 292 288 288 290
309 307 307 306 306 305 299 293 288 292 291 292 288 288 290 294 300 297 298 298 299 296 295 300 297 297 302 304 303 310 302 292 288 283 286 290 289 292 296 292 285 288 290 294
308 307 307 306 305 305 297 291 287 289 283 287 289 289 291 289 289 295 296 294 296 294 292 295 294 298 299 303 306 303 296 290 295 296 292 293 292 292 295 293 294 289 293 294
308 307 307 306 305 305 296 289 288 289 288 290 289 288 287 289 290 290 292 291 294 294 293 295 292 295 297 296 300 297 298 290 293 292 296 292 290 292 293 297 297 296 299 299
308 306 306 306 306 302 292 295 294 290 289 288 286 286 288 291 291 294 296 295 293 293 295 297 298 298 298 298 296 296 295 292 290 287 296 295 286 291 292 297 299 299 293 300
307 306 305 305 306 303 294 293 293 286 284 288 288 289 291 290 290 290 296 296 293 298 301 301 301 300 299 298 297 301 298 293 291 288 291 282 292 301 298 299 302 302 305 306
307 306 305 305 305 305 294 295 293 289 284 288 289 290 290 290 290 290 295 296 299 299 298 295 293 294 296 299 301 301 303 295 289 285 286 292 297 301 300 298 300 305 305 305
308 306 305 304 305 305 295 294 295 295 289 285 291 289 289 285 286 288 292 297 298 299 297 295 287 284 292 291 295 302 300 297 291 289 285 282 295 303 308 305 296 309 308 304
308 306 305 305 304 304 299 294 298 296 292 292 291 288 289 291 287 284 288 291 293 299 293 291 290 289 297 289 289 291 290 291 290 289 286 291 300 304 308 292 293 307 308 307
307 306 305 304 304 303 299 295 296 293 292 294 296 295 289 289 287 284 288 288 294 293 289 289 290 291 293 292 296 294 291 288 289 291 287 284 305 304 298 301 307 308 307 307
307 305 305 305 304 303 302 292 296 299 292 291 296 296 297 296 295 292 292 288 291 294 292 291 291 290 292 293 288 299 293 298 294 293 293 303 305 305 307 307 307 308 307 303
307 306 305 305 304 304 302 297 293 292 292 291 289 290 297 300 300 302 290 292 295 298 300 295 293 289 294 289 293 293 300 304 297 297 300 302 307 310 309 310 306 307 306 304
306 305 305 305 304 304 303 294 293 291 291 286 287 298 296 300 300 299 300 302 302 301 299 295 293 290 297 292 294 292 296 303 300 299 302 304 307 307 312 310 307 306 305 304
306 305 305 304 304 303 300 296 294 296 293 286 289 295 297 297 296 298 299 300 300 298 295 294 292 296 296 295 294 291 302 300 298 298 304 302 302 309 314 307 306 305 303 303
305 305 304 303 302 302 292 288 302 302 300 293 287 292 294 297 297 298 299 300 300 299 296 295 297 300 296 291 288 301 301 304 305 303 308 309 309 310 314 308 305 305 304 303
304 303 302 302 302 294 287 287 297 302 297 293 288 285 293 297 299 300 300 302 299 299 297 295 296 296 298 294 290 295 299 302 303 305 309 306 308 307 311 308 306 304 299 297
303 303 302 302 302 299 294 295 300 298 290 294 286 285 288 297 295 296 301 299 300 299 298 297 295 297 297 291 294 296 299 300 301 302 308 306 307 304 302 300 298 296 294 295
302 302 302 298 295 288 293 308 305 299 296 289 288 284 281 295 293 294 296 300 294 299 293 294 296 294 290 294 295 298 297 296 297 300 305 303 300 298 298 297 295 293 293 293
301 296 292 293 296 303 305 301 294 294 295 295 288 288 285 289 287 290 291 294 292 290 292 298 292 292 297 298 299 299 298 297 299 300 297 297 296 295 295 294 294 295 293 293
293 292 291 295 303 296 293 290 290 292 288 292 289 289 289 294 285 287 292 290 292 287 291 291 290 289 295 298 298 299 297 297 300 300 299 298 297 295 295 295 295 294 293 292
292 291 294 292 291 292 289 289 291 288 285 290 291 295 296 293 297 292 294 292 295 288 295 291 287 293 296 297 297 297 298 297 296 297 296 296 296 296 295 295 294 294 294 294
293 292 290 289 285 277 283 282 285 287 294 296 296 294 295 293 297 292 293 290 290 297 291 286 292 296 297 297 298 297 298 298 297 297 297 297 297 297 296 295 296 295 294 294
288 287 283 282 281 284 284 285 287 292 293 295 295 292 292 293 292 293 290 293 293 289 283 285 292 296 297 298 298 297 296 297 297 297 297 297 297 296 297 296 296 294 293 293
288 288 281 283 287 288 291 294 293 294 295 293 291 291 291 291 291 293 293 290 288 287 284 290 295 294 298 299 299 298 298 297 297 297 296 296 296 296 294 294 294 294 293 292
288 287 284 286 284 285 288 288 289 293 293 292 291 289 288 290 291 290 290 288 283 288 292 295 297 295 297 298 299 298 298 297 295 295 295 294 293 292 292 294 294 293 293 292
286 284 287 287 285 284 286 289 290 293 291 287 289 286 288 294 290 289 292 290 293 297 294 296 297 299 298 301 301 296 295 294 294 294 294 293 293 293 292 291 292 293 293 293

GFSNW_sfc_thetae_165.txt.gz
Theta_e
311 309 308 307 306 304 301 292 289 302 300 290 287 286 290 297 297 300 298 298 297 296 296 294 295 293 297 304 301 295 298 291 285 287 292 295 292 290 290 284 284 286 285 285
310 309 308 307 306 304 299 290 291 301 298 282 284 289 291 295 295 295 295 295 298 299 294 291 296 298 304 303 301 296 298 292 282 283 287 293 289 292 292 291 289 285 283 285
310 308 307 307 306 304 297 290 285 289 289 289 286 285 287 289 295 296 297 296 298 296 292 298 294 296 301 302 303 309 301 293 287 282 285 290 287 292 294 291 285 288 289 292
310 309 307 307 305 304 295 289 285 287 282 286 287 286 288 286 287 292 295 292 293 292 289 291 294 296 296 301 303 300 296 290 295 296 295 294 292 292 295 293 293 290 292 293
310 308 307 306 305 304 295 288 287 288 286 288 287 286 285 286 288 288 289 290 293 292 290 292 291 293 293 294 300 296 298 292 294 291 295 292 290 293 296 296 296 295 297 299
309 308 306 306 306 300 290 292 292 289 287 286 285 284 286 288 288 290 291 293 292 290 293 295 295 295 296 296 293 292 294 292 288 286 294 290 284 289 292 295 297 297 292 301
309 308 307 305 305 301 292 290 290 288 284 286 286 288 289 288 288 286 290 294 291 295 300 299 298 296 296 296 295 297 294 293 289 286 289 281 289 301 296 297 298 301 303 304
309 308 306 305 305 304 293 292 289 291 286 288 288 289 288 289 289 288 289 292 294 297 295 291 290 290 295 295 297 295 298 296 290 284 285 290 295 299 297 295 296 305 305 305
309 308 306 305 304 305 293 291 292 294 289 285 291 288 289 286 283 286 288 293 294 298 296 294 287 282 292 291 295 301 299 299 292 286 284 282 292 301 306 304 293 307 306 303
309 308 306 305 304 304 299 292 292 289 288 289 290 288 288 292 290 286 285 288 288 295 292 289 288 289 295 289 289 289 292 291 288 288 286 289 299 302 307 290 291 307 305 303
309 307 306 305 305 304 300 296 292 291 290 291 292 294 291 289 288 285 287 287 293 290 289 288 289 289 292 291 294 292 290 287 287 290 287 285 303 302 297 299 306 308 307 306
307 308 306 306 305 304 303 294 296 295 291 287 292 294 296 294 294 290 291 289 291 291 290 291 291 289 291 290 288 296 291 297 294 294 293 301 304 303 307 307 307 309 303 301
307 306 306 305 304 305 303 298 297 293 289 287 286 288 294 298 297 297 287 291 294 296 300 295 293 288 293 287 291 293 297 304 296 297 300 302 305 307 308 307 306 304 303 302
308 306 305 305 305 305 303 292 292 294 287 285 285 295 294 298 297 296 297 297 302 299 299 295 293 290 296 292 292 290 295 296 297 298 303 303 305 307 310 306 305 304 304 302
307 306 305 305 304 303 298 293 295 297 290 286 288 294 295 296 295 295 296 295 295 294 294 294 292 296 295 296 292 292 299 298 295 295 303 303 301 307 310 304 303 303 302 301
306 305 304 303 302 301 290 286 298 299 298 291 281 290 293 295 296 294 296 296 297 299 296 295 296 299 295 290 289 298 300 302 303 300 304 304 308 309 310 305 304 304 303 302
305 303 303 302 302 293 286 284 298 301 292 288 286 284 291 294 300 301 298 298 295 298 298 295 295 294 297 293 288 293 298 300 302 304 302 305 307 307 306 305 305 303 300 298
304 303 303 302 302 298 292 294 300 300 292 290 286 283 286 293 293 290 298 297 298 298 296 297 295 296 296 290 294 295 297 298 298 299 301 305 306 303 300 298 297 295 294 295
302 302 302 298 295 287 290 303 304 299 294 289 288 285 280 291 288 289 292 298 292 299 294 294 295 293 289 292 293 294 295 294 295 297 303 304 302 299 298 296 295 293 292 292
302 294 291 288 291 301 302 300 295 293 294 292 287 291 284 289 285 285 288 290 292 289 293 296 292 291 294 298 298 298 298 298 295 297 299 299 298 296 296 295 295 293 292 290
292 293 291 293 299 294 291 290 290 291 288 291 289 289 288 295 284 284 288 286 292 287 290 291 289 289 293 295 297 298 296 295 296 300 299 298 297 295 294 293 293 292 291 290
293 290 292 291 289 288 288 286 289 287 284 287 290 291 291 291 294 291 290 290 293 287 296 291 283 289 295 297 296 295 295 296 296 297 296 297 296 295 294 293 292 292 292 291
292 290 286 288 284 278 283 280 283 287 292 294 296 290 292 292 293 290 290 290 287 295 291 287 287 295 297 297 296 296 297 297 296 295 296 296 295 296 295 293 294 293 292 291
286 286 279 282 280 282 282 283 286 291 292 291 290 289 289 290 288 290 289 292 293 286 282 284 289 295 296 297 297 296 295 296 296 296 296 295 295 295 295 295 295 294 292 291
285 287 280 281 285 286 288 291 290 292 292 291 289 289 289 287 287 289 291 289 287 286 282 286 292 297 297 297 298 297 297 296 296 297 296 296 296 295 294 295 294 293 293 291
287 287 285 285 282 283 286 286 286 290 291 290 289 286 285 286 288 289 289 288 284 290 294 292 291 297 298 299 299 298 298 297 296 297 297 296 294 293 293 293 293 292 291 290
285 283 286 284 283 283 284 285 288 291 289 286 287 284 285 290 290 289 292 289 292 291 297 292 295 296 298 297 298 297 294 293 293 293 293 292 293 293 292 290 291 292 292 291

GFSNW_sfc_thetae_168.txt.gz
Theta_e
310 310 309 308 306 304 300 291 288 299 298 288 285 283 287 294 296 298 297 296 295 293 293 292 292 294 298 302 301 294 296 290 284 286 290 294 292 289 289 283 284 286 285 285
310 309 308 307 306 304 298 289 289 298 297 282 282 287 289 292 292 293 294 293 296 297 293 289 294 296 303 302 300 296 295 288 280 282 287 291 288 291 291 289 287 284 283 285
310 309 308 307 306 304 295 288 285 288 288 288 284 283 285 286 293 291 292 294 296 292 290 295 291 292 299 299 302 306 301 291 285 280 283 288 286 291 292 288 283 285 287 290
311 308 308 307 305 304 294 288 283 286 281 284 285 283 286 284 285 289 291 291 291 289 287 289 291 293 293 297 302 300 296 289 293 292 295 291 289 289 292 290 289 286 289 292
311 308 307 307 305 303 292 287 286 287 285 286 285 285 283 285 286 286 285 284 287 290 289 289 289 291 290 291 298 293 296 292 295 292 296 293 290 292 292 292 293 295 295 295
311 309 307 306 305 299 288 289 289 292 286 284 283 283 285 286 288 288 289 287 287 290 290 293 293 294 294 293 291 291 291 293 290 286 294 289 284 289 292 294 296 296 293 298
310 309 307 306 305 300 290 288 288 287 282 284 284 287 288 287 288 286 289 290 287 291 295 294 296 295 294 295 294 294 289 290 290 287 289 281 288 296 295 295 298 300 303 304
310 309 307 306 305 304 292 289 287 287 285 287 287 288 287 289 290 286 288 290 292 292 291 293 289 291 294 295 295 294 294 292 286 284 283 289 294 298 295 293 294 303 303 304
310 309 307 306 305 304 293 289 290 292 286 283 289 287 288 286 286 285 287 291 292 293 294 292 288 285 291 291 294 300 295 296 291 287 282 281 291 300 304 302 290 305 305 303
309 309 307 306 305 304 299 293 291 287 285 287 287 284 285 291 289 284 284 286 287 292 290 288 288 287 293 288 290 291 292 292 287 287 283 287 298 302 305 289 289 304 306 305
307 308 308 307 306 305 300 296 295 292 289 288 290 292 287 287 286 284 284 286 290 286 287 286 287 287 290 290 292 293 292 290 287 289 283 282 302 302 296 298 303 306 308 304
307 307 306 305 305 305 303 295 297 298 291 288 289 292 293 293 292 287 285 287 290 292 289 290 290 289 290 288 288 297 292 296 294 294 292 301 306 304 307 306 303 306 306 299
307 307 306 305 305 305 303 298 297 294 288 285 284 287 291 294 294 294 285 289 294 294 298 294 293 288 292 287 289 290 295 301 297 297 300 302 305 306 309 305 305 306 302 300
306 308 306 305 305 305 303 296 291 294 290 284 284 293 292 296 296 294 294 291 295 297 299 294 292 289 296 291 292 291 292 294 295 297 302 302 306 306 306 303 303 302 302 302
307 307 306 305 304 303 299 291 294 297 289 285 285 291 293 295 294 294 293 292 289 290 293 292 291 295 294 296 293 292 299 295 292 292 301 300 301 307 308 304 303 303 301 299
307 306 304 304 302 299 289 287 297 297 296 290 281 287 291 293 295 292 291 294 292 294 295 294 296 299 295 290 289 296 301 302 302 298 301 301 303 310 309 304 303 303 302 301
306 304 303 303 302 296 286 283 297 299 296 286 281 283 289 292 293 295 293 293 292 293 295 295 295 295 297 292 288 294 296 299 301 303 299 300 307 305 305 305 304 304 302 299
306 303 302 302 302 298 291 295 301 299 291 288 282 282 285 291 288 289 293 296 295 297 296 297 295 295 295 289 292 294 297 299 298 299 299 298 305 302 299 300 298 297 295 294
303 302 301 298 295 287 289 302 303 299 293 288 288 283 280 290 287 286 289 291 291 298 294 294 295 292 289 290 291 293 295 295 295 296 298 305 299 297 297 297 295 294 293 293
301 294 290 286 290 299 300 298 294 292 293 293 285 287 285 291 290 284 285 289 291 289 293 296 292 290 293 294 295 295 296 297 295 293 297 300 296 295 295 295 295 294 292 291
291 292 290 292 298 292 289 289 290 290 288 290 288 286 287 294 288 285 286 283 290 287 290 290 289 286 290 296 297 297 295 294 294 295 298 301 298 295 293 293 292 292 291 289
293 290 291 290 288 286 286 287 290 288 284 286 285 287 289 291 293 286 288 290 290 286 296 290 286 287 296 295 295 293 294 295 295 295 295 295 295 295 293 292 291 290 290 290
292 289 285 285 283 282 281 280 284 286 289 292 292 289 290 289 290 287 287 288 287 294 290 288 286 295 296 295 295 295 296 296 296 295 295 294 294 294 293 291 292 291 290 289
288 285 276 280 280 281 282 283 284 289 292 291 289 288 287 288 286 288 286 289 291 287 284 285 288 295 295 296 296 295 295 295 295 295 295 294 293 293 293 292 292 291 289 289
286 286 280 282 285 285 286 288 288 292 292 289 287 287 287 286 285 287 287 285 285 286 286 291 294 296 296 295 296 296 295 295 295 295 294 294 294 294 293 293 293 292 290 289
287 285 284 285 283 284 285 286 285 289 289 288 287 285 284 284 285 285 285 285 283 289 291 296 295 297 297 297 298 298 297 297 296 296 296 295 294 293 293 293 293 292 290 288
285 283 287 285 283 283 283 284 285 289 288 284 285 284 284 290 286 286 289 288 291 294 296 294 294 297 297 298 298 297 296 296 296 295 294 293 294 293 292 290 290 290 290 289

GFSNW_sfc_thetae_171.txt.gz
Theta_e
310 309 308 308 306 304 303 299 295 305 305 294 293 290 291 294 295 297 298 298 295 293 293 291 291 289 294 298 301 296 299 296 290 292 297 300 299 296 297 292 289 293 293 292
311 309 307 308 306 304 300 295 295 304 305 288 288 291 291 293 292 292 293 292 296 297 292 288 292 293 298 299 299 298 301 295 288 288 293 296 295 296 297 297 296 291 289 292
311 309 307 307 306 304 300 296 290 296 296 294 290 288 288 288 294 292 292 293 294 290 290 294 291 292 296 297 297 304 303 297 292 287 290 294 292 295 297 296 293 292 294 295
311 309 307 307 305 304 300 295 290 291 287 290 290 289 288 287 287 291 292 292 290 288 287 289 291 291 293 294 300 299 299 294 296 296 297 295 295 295 296 294 294 292 294 296
311 309 308 306 305 302 298 293 292 294 291 291 289 288 288 287 288 288 288 288 289 290 288 290 288 291 290 288 296 294 297 292 295 293 297 297 293 295 296 296 297 297 298 298
309 309 308 306 305 301 295 296 296 294 290 289 288 288 288 288 290 291 292 290 289 288 291 294 293 293 293 293 292 290 293 295 294 289 295 294 290 294 295 297 299 299 295 302
309 309 307 306 305 301 297 296 295 291 287 288 288 289 290 289 290 287 291 292 290 294 297 296 298 296 294 294 294 296 293 294 294 292 293 285 295 303 299 298 300 303 306 308
309 309 307 306 305 302 299 297 295 293 286 289 289 290 289 291 292 290 290 293 296 297 294 293 294 295 294 294 295 295 295 294 293 290 290 293 297 301 301 297 296 305 306 307
308 310 307 306 304 303 300 297 297 295 286 288 291 289 290 288 288 290 291 295 297 297 294 293 286 286 290 291 294 299 296 296 293 292 288 286 296 303 308 306 294 307 309 308
307 307 308 307 306 304 301 298 297 294 286 291 292 289 288 292 290 287 290 291 292 298 291 287 286 287 290 285 290 292 292 292 289 290 290 293 302 305 308 293 295 308 310 310
305 306 307 306 306 305 302 299 299 295 290 291 293 293 291 291 291 287 292 292 293 293 287 287 288 287 288 287 290 292 292 291 292 293 291 289 305 305 299 305 307 310 311 311
305 306 307 306 304 304 304 297 299 299 292 291 296 295 296 295 295 292 292 291 292 294 289 291 291 288 291 290 287 297 290 293 291 296 295 304 306 305 309 310 307 309 311 305
305 307 307 307 305 305 304 300 300 296 291 290 290 292 297 298 297 299 291 294 297 298 300 293 293 288 292 287 289 292 295 299 296 297 300 301 306 306 309 309 308 312 307 304
305 307 307 306 305 305 303 299 298 296 291 285 290 298 297 300 300 298 297 297 299 299 298 295 293 289 296 291 293 292 295 297 297 298 300 301 306 304 307 306 306 306 306 304
305 306 307 306 304 302 300 299 298 299 293 287 289 295 298 300 300 298 298 296 294 294 293 294 293 297 295 296 294 292 298 296 293 293 299 299 299 304 307 305 304 305 305 304
305 306 306 305 303 300 297 292 299 300 299 290 285 294 294 298 299 298 297 296 296 296 294 295 298 301 297 290 289 298 302 303 303 300 304 302 302 308 310 306 305 305 305 304
305 306 304 304 302 299 293 289 298 300 299 289 286 288 296 296 298 302 299 298 298 297 296 297 297 297 298 293 289 297 300 302 303 304 303 300 303 302 307 306 304 304 303 301
305 304 303 303 302 300 295 300 301 300 295 292 284 287 291 297 296 296 302 296 297 297 297 299 297 298 297 292 298 299 300 301 302 302 303 303 306 305 305 305 301 299 297 297
305 303 302 300 296 292 296 301 303 300 294 289 289 287 288 297 297 295 296 300 294 301 294 295 298 294 292 297 299 299 300 300 301 302 302 304 301 300 300 300 299 297 295 296
302 298 294 291 296 299 304 298 293 291 292 293 288 292 288 295 294 294 293 297 293 290 295 298 294 293 300 300 301 301 299 298 299 298 299 300 296 297 296 297 298 297 296 294
296 293 292 297 299 299 295 291 290 291 288 291 291 292 290 297 291 291 295 293 294 288 293 291 292 292 297 300 300 299 299 299 300 301 301 301 300 296 296 295 295 295 293 291
296 295 296 296 294 291 287 287 291 289 286 292 291 293 293 295 296 291 295 291 293 286 296 291 289 295 297 297 298 298 299 299 299 301 301 300 296 295 294 293 292 291 291 290
296 293 290 289 288 283 282 281 285 287 293 294 293 294 297 297 295 293 294 289 289 299 291 290 294 298 298 297 297 297 298 297 295 294 295 295 294 294 292 291 291 291 291 291
290 286 281 283 282 284 286 287 289 294 297 296 297 296 295 296 294 295 290 295 296 289 285 289 295 296 297 297 297 296 295 296 295 294 294 293 293 292 292 291 291 290 290 290
288 287 281 284 287 289 290 292 291 295 296 295 294 294 294 293 291 294 292 289 287 288 289 293 297 298 297 297 296 296 295 295 295 294 293 292 292 291 291 291 291 291 290 290
289 287 284 287 286 287 289 290 290 294 295 295 295 292 290 289 292 289 288 288 287 290 294 298 297 298 298 297 297 297 296 296 295 295 294 294 293 292 292 292 291 290 289 288
285 284 288 288 288 287 290 291 291 295 293 290 292 287 287 293 287 286 291 289 292 295 297 298 298 300 299 299 298 298 297 297 296 295 295 294 294 294 292 289 289 290 289 288